SCP
2 2 2 1 1 2 1 1 1 1 1 1 0 0 0 0 0 0 0 0 0 0
3 2 2 1 1 1 1 2 1 1 1 1 1 1 1 0 0 0 0 0 0 0
2 2 2 1 1 1 1 1 1 1 1 1 1 1 1 1 1 0 0 0 0 0
1 3 3 2 2 1 2 2 2 2 2 2 2 2 2 2 2 1 1 0 0 0
0 0 0 0 1 3 3 3 3 3 3 3 3 2 2 2 2 2 1 1 1 0
1 1 1 0 0 0 2 3 3 3 3 4 3 3 3 2 3 2 2 2 2 1
0 0 0 1 1 0 0 1 3 3 2 2 3 3 3 3 3 2 2 2 2 2
0 0 0 0 0 0 0 0 0 1 2 2 2 2 3 3 3 3 3 3 2 2
0 0 0 0 0 0 0 0 0 1 1 1 1 2 2 3 4 3 3 3 2 2
0 0 0 0 -0 0 -0 -0 0 0 0 0 0 0 0 0 2 3 3 3 3 1
0 0 0 0 0 0 0 -0 -0 -0 0 0 0 0 0 0 0 2 3 3 2 2
0 0 0 0 0 0 0 0 0 0 0 0 0 0 0 0 0 0 1 3 1 0
0 0 0 0 0 -0 -0 -0 0 0 0 0 0 0 0 0 0 0 0 0 0 0
-0 0 0 0 0 0 0 -0 -0 0 0 0 0 0 -0 -0 0 0 0 0 0 0
Wind_Speed_500mb
105 96 89 89 85 85 86 81 78 82 87 91 93 93 97 102 101 99 101 100 103 104
113 103 97 93 92 89 86 84 81 79 78 83 86 90 94 100 101 102 102 102 101 104
111 102 101 97 94 91 88 85 84 84 86 89 93 91 94 99 101 107 106 105 103 103
94 94 92 84 78 76 77 80 81 87 93 98 98 96 97 99 98 103 99 102 103 103
27 30 34 37 42 50 59 61 67 80 90 98 97 93 98 102 102 106 104 99 101 102
18 14 15 14 21 31 41 47 52 58 72 87 95 97 101 105 105 103 107 104 100 96
1 3 7 9 17 22 25 31 38 45 62 75 86 92 98 105 108 108 109 109 109 103
19 23 27 31 35 41 42 39 40 43 52 59 77 84 93 98 103 107 109 110 111 108
27 23 28 34 37 42 44 46 47 50 53 61 66 73 79 87 98 103 108 110 112 109
40 40 38 41 44 50 60 61 60 58 57 61 68 71 72 76 86 95 101 106 108 109
38 41 46 48 49 53 56 58 61 65 66 69 70 67 68 71 76 89 100 105 106 109
44 46 48 47 51 52 54 60 63 64 68 71 76 71 64 65 70 80 89 102 110 112
60 50 50 50 47 49 54 59 65 71 72 68 75 74 70 65 65 72 78 87 97 110
74 71 63 59 53 56 63 65 67 72 77 75 67 71 75 69 64 68 75 76 80 92
Wind_Direction_500mb
226 228 234 239 243 245 246 252 257 257 256 259 260 260 262 262 262 260 260 258 258 256
227 230 235 241 244 247 251 253 256 260 262 264 266 265 264 264 265 263 263 263 261 260
230 234 237 241 244 248 253 257 261 262 265 267 267 265 264 265 266 263 265 264 264 263
239 239 243 251 258 262 263 264 265 266 266 265 265 264 262 263 264 263 265 265 264 265
214 219 227 240 246 252 256 262 266 267 268 266 265 260 261 262 262 261 263 264 264 265
143 175 199 228 253 255 256 264 268 265 268 266 261 260 261 265 265 263 264 264 263 267
199 217 238 300 320 307 294 281 272 272 267 265 263 261 262 265 266 267 266 264 263 263
315 306 301 301 303 305 310 310 303 288 277 277 266 262 262 264 266 266 267 267 266 263
330 313 303 303 303 304 302 298 299 302 294 284 280 274 269 269 268 268 268 268 268 265
337 326 318 307 302 299 299 295 292 292 297 296 287 281 279 274 271 267 267 269 270 268
341 327 323 317 310 308 306 302 296 295 297 297 292 294 283 283 278 272 267 268 268 267
316 322 310 306 309 309 306 304 305 305 298 298 294 295 294 286 281 277 271 266 263 262
308 302 306 303 302 299 300 297 303 305 309 304 295 295 296 297 289 283 278 272 268 263
301 297 293 295 303 290 292 294 299 304 307 306 302 296 293 298 294 291 286 282 279 272
Wind_Speed_850mb
105 96 89 89 85 85 86 81 78 82 87 91 93 93 97 102 101 99 101 100 103 104
113 103 97 93 92 89 86 84 81 79 78 83 86 90 94 100 101 102 102 102 101 104
111 102 101 97 94 91 88 85 84 84 86 89 93 91 94 99 101 107 106 105 103 103
94 94 92 84 78 76 77 80 81 87 93 98 98 96 97 99 98 103 99 102 103 103
27 30 34 37 42 50 59 61 67 80 90 98 97 93 98 102 102 106 104 99 101 102
18 14 15 14 21 31 41 47 52 58 72 87 95 97 101 105 105 103 107 104 100 96
1 3 7 9 17 22 25 31 38 45 62 75 86 92 98 105 108 108 109 109 109 103
19 23 27 31 35 41 42 39 40 43 52 59 77 84 93 98 103 107 109 110 111 108
27 23 28 34 37 42 44 46 47 50 53 61 66 73 79 87 98 103 108 110 112 109
40 40 38 41 44 50 60 61 60 58 57 61 68 71 72 76 86 95 101 106 108 109
38 41 46 48 49 53 56 58 61 65 66 69 70 67 68 71 76 89 100 105 106 109
44 46 48 47 51 52 54 60 63 64 68 71 76 71 64 65 70 80 89 102 110 112
60 50 50 50 47 49 54 59 65 71 72 68 75 74 70 65 65 72 78 87 97 110
74 71 63 59 53 56 63 65 67 72 77 75 67 71 75 69 64 68 75 76 80 92
Wind_Direction_850mb
226 228 234 239 243 245 246 252 257 257 256 259 260 260 262 262 262 260 260 258 258 256
227 230 235 241 244 247 251 253 256 260 262 264 266 265 264 264 265 263 263 263 261 260
230 234 237 241 244 248 253 257 261 262 265 267 267 265 264 265 266 263 265 264 264 263
239 239 243 251 258 262 263 264 265 266 266 265 265 264 262 263 264 263 265 265 264 265
214 219 227 240 246 252 256 262 266 267 268 266 265 260 261 262 262 261 263 264 264 265
143 175 199 228 253 255 256 264 268 265 268 266 261 260 261 265 265 263 264 264 263 267
199 217 238 300 320 307 294 281 272 272 267 265 263 261 262 265 266 267 266 264 263 263
315 306 301 301 303 305 310 310 303 288 277 277 266 262 262 264 266 266 267 267 266 263
330 313 303 303 303 304 302 298 299 302 294 284 280 274 269 269 268 268 268 268 268 265
337 326 318 307 302 299 299 295 292 292 297 296 287 281 279 274 271 267 267 269 270 268
341 327 323 317 310 308 306 302 296 295 297 297 292 294 283 283 278 272 267 268 268 267
316 322 310 306 309 309 306 304 305 305 298 298 294 295 294 286 281 277 271 266 263 262
308 302 306 303 302 299 300 297 303 305 309 304 295 295 296 297 289 283 278 272 268 263
301 297 293 295 303 290 292 294 299 304 307 306 302 296 293 298 294 291 286 282 279 272